Regional Weather Roundup
Issued by NWS

Home | Current Version | Previous Version | Graphics & Text | Print | Product List | Glossary On
Versions: 1 2 3 4 5 6 7 8 9 10 11 12 13 14 15 16 17 18 19 20 21 22 23 24 25 26 27
000
ASUS45 KCYS 200810
RWRWY

WYOMING REGIONAL WEATHER ROUNDUP
NATIONAL WEATHER SERVICE CHEYENNE WY
200 AM MDT FRI OCT 20 2017

NOTE:  "FAIR" INDICATES FEW OR NO CLOUDS BELOW 12,000 FEET
WITH NO SIGNIFICANT WEATHER AND/OR OBSTRUCTIONS TO VISIBILITY.

WYZ001-200900-
YELLOWSTONE NATIONAL PARK

CITY           SKY/WX    TMP DP  RH WIND       PRES   REMARKS
LK YELLOWSTONE   N/A     26  21  81 NW3       29.82F
W YELLOWSTONE  NOT AVBL

$$
WYZ002>013-054>058-071-098>099-200900-
NORTHERN WYOMING

CITY           SKY/WX    TMP DP  RH WIND       PRES   REMARKS
JACKSON        FAIR      28  21  75 NE8       29.79F WCI  20
CODY           FAIR      45  17  32 S8        29.65F
GREYBULL       FAIR      41  22  46 CALM      29.62F
WORLAND        FAIR      52  21  29 CALM      29.63F
SHERIDAN       FAIR      42  28  57 CALM      29.58F
BUFFALO        FAIR      60   7  12 S7        29.64F
GILLETTE       FAIR      62  15  16 S26G35    29.60F
HULETT         FAIR      63  23  22 S16G23    29.64F
NEWCASTLE      FAIR      59  23  25 SE14G22   29.72F

$$
WYZ014>020-022>026-101>103-200900-
CENTRAL WYOMING

CITY           SKY/WX    TMP DP  RH WIND       PRES   REMARKS
BIG PINEY      CLOUDY    39  21  48 NE5       29.85F
PINEDALE       CLOUDY    41  23  48 SE5       29.87F
DUBOIS         FAIR      41  18  38 NW14      29.79F
LANDER         FAIR      57  20  23 S7        29.71F
RIVERTON       FAIR      44  22  41 NW10      29.72F
CASPER         FAIR      47  28  47 SW7       29.77F
DOUGLAS        FAIR      44  29  55 S3        29.77F

$$
WYZ021-027>030-104>119-200900-
SOUTHERN WYOMING

CITY           SKY/WX    TMP DP  RH WIND       PRES   REMARKS
EVANSTON       FAIR      47  35  63 SW8       29.85F
KEMMERER       FAIR      45  28  53 CALM      29.87F
FORT BRIDGER   FAIR      46  31  56 SW8       29.88F
ROCK SPRINGS   FAIR      49  26  41 SE9       29.87F
DIXON          CLOUDY    46  31  56 CALM      29.94F
RAWLINS        FAIR      50  28  42 SW12      29.89F
SARATOGA       FAIR      43  30  61 S9        29.93F
LARAMIE        FAIR      40  27  59 W8        29.93F WCI  34
CHEYENNE       FAIR      42  28  57 NW5       29.86F
TORRINGTON     FAIR      44  28  53 E5        29.75F
PINE BLUFFS    FAIR      36  30  80 MISG      29.84F

$$




USA.gov is the U.S. government's official web portal to all federal, state and local government web resources and services.